This is the latest recevied weather packets stored in our database for station/object OE2SWM. If no packets are shown the sender has not sent any weather packets the latest 10 day(s).
| Time | Temp. | Humidity | Pressure | Rain* | Wind** | Luminosity | Snow |
|---|---|---|---|---|---|---|---|
| 1777607400 | -4.44° C | 83% | 979 hPa | 0 mm | - | - | - |
| 1777606800 | -4.44° C | 83% | 979 hPa | 0 mm | - | - | - |
| 1777606200 | -4.44° C | 85% | 979 hPa | 0 mm | - | - | - |
| 1777605600 | -4.44° C | 82% | 979 hPa | 0 mm | - | - | - |
| 1777605000 | -4.44° C | 82% | 979 hPa | 0 mm | - | - | - |
| 1777604400 | -4.44° C | 84% | 979 hPa | 0 mm | - | - | - |
| 1777603800 | -4.44° C | 85% | 979 hPa | 0 mm | - | - | - |
| 1777603200 | -3.33° C | 83% | 979 hPa | 0 mm | - | - | - |
| 1777602600 | -4.44° C | 82% | 979 hPa | 0 mm | - | - | - |
| 1777602000 | -3.33° C | 82% | 979 hPa | 0 mm | - | - | - |
| 1777601400 | -3.33° C | 81% | 979 hPa | 0 mm | - | - | - |
| 1777584600 | 0.56° C | 74% | 978 hPa | 0 mm | - | - | - |
| 1777584000 | 0.56° C | 75% | 978 hPa | 0 mm | - | - | - |
| 1777583400 | 0.56° C | 72% | 978 hPa | 0 mm | - | - | - |
| 1777582800 | 1.67° C | 69% | 978 hPa | 0 mm | - | - | - |
| 1777581600 | 1.67° C | 69% | 978 hPa | 0 mm | - | - | - |
| 1777581000 | 1.67° C | 67% | 978 hPa | 0 mm | - | - | - |
| 1777580400 | 1.67° C | 67% | 978 hPa | 0 mm | - | - | - |
| 1777579800 | 2.78° C | 68% | 978 hPa | 0 mm | - | - | - |
| 1777579200 | 2.78° C | 67% | 978 hPa | 0 mm | - | - | - |
| 1777577400 | 3.89° C | 66% | 978 hPa | 0 mm | - | - | - |
| 1777576800 | 3.89° C | 64% | 977 hPa | 0 mm | - | - | - |
| 1777575600 | 5° C | 61% | 977 hPa | 0 mm | - | - | - |
| 1777573200 | 6.67° C | 56% | 977 hPa | 0 mm | - | - | - |
| 1777572600 | 7.78° C | 50% | 977 hPa | 0 mm | - | - | - |
* Rain latest hour (hover to see other rain measurements)
** Current wind speed in m/s (hover to see current wind gust speed)